Weather History for St. David's, Bermuda

Change the Weather History Date:

Saturday, November 5, 2011

  Actual Average Record
Temperature  
Mean Temperature 72 °F -  
Max Temperature 77 °F 72 °F 80 °F (2003)
Min Temperature 66 °F 64 °F 64 °F (2002)
Cooling Degree Days 8    
Growing Degree Days 22 (Base 50)    
Moisture  
Dew Point 64 °F    
Average Humidity 75    
Maximum Humidity 88    
Minimum Humidity 64    
Precipitation  
Precipitation 0.08 in - - ()
Sea Level Pressure  
Sea Level Pressure 29.75 in    
Wind  
Wind Speed 17 mph ()    
Max Wind Speed 37 mph    
Max Gust Speed 56 mph    
Visibility 6.5 miles    
Events Rain , Thunderstorm    
Averages and records for this station are not official NWS values.
T = Trace of Precipitation, MM = Missing Value Source: Averaged Metar Reports

Daily Weather History Graph

Daily Weather History Graph

Search for Another Location

Airport:

Trip Planner

Search our weather history database for the weather conditions in past years. The results will help you decide how hot, cold, wet, or windy it might be!

Date:

Astronomy

Nov. 05, 2011 Rise Set
Actual Time 7:38 AM ADT 6:25 PM ADT
Civil Twilight 7:13 AM ADT 6:50 PM ADT
Nautical Twilight 6:44 AM ADT 7:19 PM ADT
Astronomical Twilight 6:15 AM ADT 7:48 PM ADT
Moon 3:28 PM ADT (11/5) 3:00 AM ADT (11/5)
Length of Visible Light 11h 37m
Length of Day
10h 46m
Waxing Gibbous, 77% of the Moon is Illuminated
Nov 5
Waxing Gibbous
Nov 10
Full
Nov 18
Last Quarter
Nov 25
New
Dec 2
First Quarter

Hourly Weather History & Observations

Time (ADT) Temp. Dew Point Humidity Pressure Visibility Wind Dir Wind Speed Gust Speed Precip Events Conditions
12:00 AM 71 °F 63 °F 70% 29.80 in 9 mi SW 6.9 mph - -  
12:55 AM 71.6 °F 60.8 °F 69% 29.77 in 6.2 mi SW 11.5 mph - N/A   Partly Cloudy
1:55 AM 71.6 °F 62.6 °F 73% 29.77 in 6.2 mi SW 10.4 mph - N/A   Scattered Clouds
2:55 AM 71.6 °F 62.6 °F 73% 29.74 in 6.2 mi SSW 12.7 mph - N/A   Partly Cloudy
3:00 AM 72 °F 62 °F 64% 29.75 in 9 mi SSW 6.9 mph - -   Scattered Clouds
3:55 AM 73.4 °F 64.4 °F 73% 29.71 in 6.2 mi SSW 16.1 mph - N/A   Mostly Cloudy
4:55 AM 75.2 °F 64.4 °F 69% 29.68 in 6.2 mi SSW 18.4 mph - N/A   Scattered Clouds
5:40 AM 75.2 °F 64.4 °F 69% 29.71 in 6.2 mi SSW 20.7 mph - N/A Rain Light Rain Showers
6:00 AM 73 °F 66 °F 72% 29.72 in 9 mi South 13.8 mph - - Rain Light Rain Showers
6:55 AM 75.2 °F 66.2 °F 73% 29.68 in 6.2 mi SSW 20.7 mph - N/A Rain Light Rain Showers
7:55 AM 71.6 °F 68.0 °F 88% 29.68 in 5.6 mi South 20.7 mph - N/A Rain Light Rain Showers
8:21 AM 71.6 °F 64.4 °F 78% 29.68 in 6.2 mi SSW 21.9 mph - N/A   Mostly Cloudy
8:55 AM 75.2 °F 66.2 °F 73% 29.71 in 6.2 mi South 20.7 mph - N/A   Mostly Cloudy
9:00 AM 74 °F 67 °F 72% 29.71 in 9 mi South 16.1 mph - - Rain Light Rain Showers
9:31 AM 75.2 °F 68.0 °F 78% 29.71 in 6.2 mi South 16.1 mph - N/A   Mostly Cloudy
9:55 AM 75.2 °F 68.0 °F 78% 29.71 in 6.2 mi SSW 17.3 mph - N/A   Mostly Cloudy
10:55 AM 77.0 °F 69.8 °F 78% 29.71 in 6.2 mi SW 15.0 mph - N/A   Mostly Cloudy
11:55 AM 73.4 °F 68.0 °F 83% 29.71 in 6.2 mi WNW 13.8 mph - N/A   Mostly Cloudy
12:55 PM 73.4 °F 66.2 °F 78% 29.74 in 6.2 mi North 13.8 mph - N/A   Mostly Cloudy
1:26 PM 73.4 °F 66.2 °F 78% 29.71 in 6.2 mi NE 20.7 mph - N/A   Mostly Cloudy
1:55 PM 73.4 °F 66.2 °F 78% 29.71 in 6.2 mi NE 20.7 mph - N/A   Mostly Cloudy
3:00 PM 73 °F 65 °F 70% 29.73 in 9 mi ENE 27.6 mph - -   Partly Cloudy
3:13 PM 73.4 °F 64.4 °F 73% 29.74 in 6.2 mi ENE 25.3 mph - N/A   Mostly Cloudy
3:36 PM 73.4 °F 64.4 °F 73% 29.74 in 6.2 mi ENE 24.2 mph - N/A   Mostly Cloudy
3:55 PM 71.6 °F 64.4 °F 78% 29.71 in 6.2 mi ENE 27.6 mph - N/A   Mostly Cloudy
4:55 PM 71.6 °F 64.4 °F 78% 29.71 in 5.6 mi East 31.1 mph 44.9 mph N/A Rain Light Rain Showers
5:05 PM 71.6 °F 64.4 °F 78% 29.74 in 6.2 mi ENE 29.9 mph - N/A   Mostly Cloudy
5:55 PM 71.6 °F 64.4 °F 78% 29.74 in 6.2 mi ENE 31.1 mph - N/A   Mostly Cloudy
6:00 PM 71 °F 65 °F 75% 29.75 in 9 mi ENE 31.1 mph - - Rain Light Rain Showers
6:55 PM 69.8 °F 64.4 °F 83% 29.77 in 3.7 mi ENE 33.4 mph 44.9 mph N/A Rain Light Rain
7:39 PM 69.8 °F 62.6 °F 78% 29.80 in 6.2 mi ENE 36.8 mph 50.6 mph N/A   Mostly Cloudy
7:55 PM 69.8 °F 62.6 °F 78% 29.80 in 6.2 mi ENE 34.5 mph 50.6 mph N/A   Overcast
8:55 PM 69.8 °F 60.8 °F 73% 29.83 in 6.2 mi NE 34.5 mph 55.2 mph N/A   Mostly Cloudy
9:00 PM 69 °F 61 °F 69% 29.83 in 9 mi NE 34.5 mph - -   Mostly Cloudy
9:55 PM 69.8 °F 59.0 °F 68% 29.86 in 5.6 mi NE 34.5 mph - N/A Rain Light Rain Showers
10:08 PM 68.0 °F 59.0 °F 73% 29.86 in 3.7 mi NE 35.7 mph 47.2 mph N/A Rain , Thunderstorm Light Thunderstorms and Rain
10:55 PM 68.0 °F 59.0 °F 73% 29.89 in 6.2 mi NE 34.5 mph 56.4 mph N/A   Overcast
11:55 PM 66.2 °F 57.2 °F 73% 29.92 in 5.6 mi NE 31.1 mph 44.9 mph N/A Rain Light Rain Showers